Regional Weather Roundup
Issued by NWS Cleveland, OH

Home | Current Version | Previous Version | Graphics & Text | Print | Product List | Glossary On
Versions: 1 2 3 4 5 6 7 8 9 10 11 12 13 14 15 16 17 18 19 20 21 22 23 24 25 26 27 28 29 30 31 32 33 34 35 36 37 38 39 40 41 42 43 44 45 46 47 48 49 50
669
ASUS41 KCLE 192312
RWRCLE
OHIO REGIONAL WEATHER ROUNDUP
NATIONAL WEATHER SERVICE WILMINGTON, OH
600 PM EST MON FEB 19 2018

NOTE: "FAIR" INDICATES FEW OR NO CLOUDS BELOW 12,000 FEET WITH NO
SIGNIFICANT WEATHER AND/OR OBSTRUCTIONS TO VISIBILITY.

OHZ001>008-015>018-024>027-034-035-043-044-200000-
   NORTHWEST OHIO

CITY           SKY/WX    TMP DP  RH WIND       PRES   REMARKS
DEFIANCE       FAIR      60  56  86 SW12G20   29.95R
FINDLAY        LGT RAIN  63  56  78 SW17G26   29.97R
TOLEDO EXPRESS FAIR      60  59  96 SW12      29.94R
TOLEDO EXEC    MOCLDY    59  57  93 S13       29.95S
LIMA           MOCLDY    62  58  86 SW13      30.01R
$$

OHZ009>014-019>023-028>033-038-089-200000-
   NORTHEAST OHIO

CITY           SKY/WX    TMP DP  RH WIND       PRES   REMARKS
CLE-HOPKINS    LGT RAIN  60  56  86 S15G21    30.03F
CLE-LAKEFRONT  LGT RAIN  59  55  87 S13       30.00S
CUY CO. ARPT   LGT RAIN  59  57  94 S14G23    30.03S
LORAIN-ELYRIA  LGT RAIN  56  51  84 S14       30.00F
ASHTABULA      LGT RAIN  56  55  97 SW15      30.05R
AKRON-CANTON   CLOUDY    58  54  86 S10       30.06S
WOOSTER        FAIR      56  54  93 S9        30.05S
MANSFIELD      MOCLDY    60  57  89 S14       30.03S
YOUNGSTOWN     CLOUDY    56  54  93 S10       30.07R
$$

OHZ042-051>053-060>062-070>072-077>081-200000-
  SOUTHWEST OHIO

CITY           SKY/WX    TMP DP  RH WIND       PRES   REMARKS
CINC-COVINGTON CLOUDY    72  57  59 S15G22    30.05R
CINC-LUNKEN    CLOUDY    73  55  53 SW21G29   30.05R
HAMILTON       MOCLDY    73  56  54 S7        30.04R
DAYTON         MOCLDY    68  58  70 S12       30.04R
WRIGHT-PAT AFB FAIR      70  54  57 S16       30.03R
DAYTON GENERAL FAIR      71  54  54 SW14G26   30.03R
WILMINGTON     CLOUDY    67  59  75 S12       30.06R
$$

OHZ036-037-039>041-045>050-054>059-063>069-073>076-082>088-200000-
  CENTRAL AND SOUTHEAST OHIO

CITY           SKY/WX    TMP DP  RH WIND       PRES   REMARKS
COLUMBUS       CLOUDY    69  58  67 SW14      30.06R
OSU AIRPORT    FAIR      68  60  75 S13       30.04R
BOLTON FIELD   PTCLDY    68  59  73 SW14G20   30.06R
RICKENBACK AFB MOCLDY    67  58  73 SW13      30.06R
NEWARK         MOCLDY    66  57  72 S7        30.06R
MARION         FAIR      61  57  87 S12       30.02S
LANCASTER      FAIR      68  56  65 SW9       30.08R
ZANESVILLE     FAIR      65  56  72 S9        30.08S
NEW PHILLY     FAIR      62  56  80 S6        30.08S
$$




USA.gov is the U.S. government's official web portal to all federal, state and local government web resources and services.